Regional Weather Roundup
Issued by NWS Albany, NY

Home | Current Version | Previous Version | Text Only | Print | Product List | Glossary On
Versions: 1 2 3 4 5 6 7 8 9 10 11 12 13 14 15 16 17 18 19 20 21 22 23 24 25 26 27 28
000
ASUS41 KALY 261810
RWRALY

NEW YORK STATE HOURLY WEATHER ROUNDUP
NATIONAL WEATHER SERVICE ALBANY NY
200 PM EDT FRI MAY 26 2017

NOTE: "FAIR" INDICATES FEW OR NO CLOUDS BELOW 12,000 FEET WITH NO
SIGNIFICANT WEATHER AND/OR NO OBSTRUCTIONS TO VISIBILITY.

NYZ032-033-038>043-046>054-057>066-NYZ062>081-082-084-261900-
EAST


CITY           SKY/WX    TMP DP  RH WIND       PRES   REMARKS
ALBANY         CLOUDY    58  55  90 E7        29.58S
GLENS FALLS    LGT RAIN  57  54  89 CALM      29.59R FOG
POUGHKEEPSIE   CLOUDY    67  58  72 NW3       29.58R
NEWBURGH       PTSUNNY   68  59  73 NW12G30   29.61R
MONTGOMERY     PTSUNNY   71  54  54 W12G21    29.60R
WHITE PLAINS   PTSUNNY   72  55  55 NW17G23   29.59R
ISLIP          PTSUNNY   71  58  63 NW14      29.58S
NEW YORK CITY  PTSUNNY   76  53  44 W15G24    29.58R
CENTRAL PARK   PTSUNNY   73  55  53 W8G20     29.62R
$$

NYZ005>009-017-018-044>046-055-056-261900-
CENTRAL


CITY           SKY/WX    TMP DP  RH WIND       PRES   REMARKS
FULTON         CLOUDY    58  55  90 NW10      29.70R
SYRACUSE       CLOUDY    59  55  87 NW10      29.68R
ROME           CLOUDY    61  55  81 W16       29.64R
ELMIRA         CLOUDY    69  54  58 W13       29.69R
BINGHAMTON     LGT RAIN  58  52  80 NW13G18   29.68R
MONTICELLO     MOSUNNY   64  55  72 NW13G25   29.65S
$$

NYZ026>034-041>043-087-261900-
NORTH


CITY           SKY/WX    TMP DP  RH WIND       PRES   REMARKS
WATERTOWN      CLOUDY    61  56  83 N7        29.67R
FORT DRUM      NOT AVBL
OGDENSBURG     LGT RAIN  56  54  91 N6        29.69R
MASSENA        LGT RAIN  57  54  89 NE12      29.69R
SARANAC LAKE   LGT RAIN  52  51  97 NE7       29.63R FOG
PLATTSBURGH    LGT RAIN  55  52  89 N15       29.61S FOG
$$

NYZ001>004-010>016-019>021-085-261900-
WEST


CITY           SKY/WX    TMP DP  RH WIND       PRES   REMARKS
NIAGARA FALLS  CLOUDY    67  53  61 NW10      29.73S
BUFFALO        PTSUNNY   56  53  90 SW16      29.75R
DUNKIRK        CLOUDY    56  54  93 W14G29    29.79R
JAMESTOWN      CLOUDY    55  50  82 W14G20    29.80R
WELLSVILLE     LGT RAIN  59  54  83 W17       29.77R
ROCHESTER      LGT RAIN  62  57  83 NW8       29.72R
PENN YAN       CLOUDY    62  52  69 NW9       29.72R
$$

             KEY
       WCI = WIND CHILL INDEX
       VSB = VISIBILITY
       HX  = HEAT INDEX
$$




USA.gov is the U.S. government's official web portal to all federal, state and local government web resources and services.